McKinleyville, CA

2:48 PM PST on February 24, 2017 (GMT -0800)
Arcata

Weather History for KACV - October, 2012

Change the Weather History Date:

Monday, October 8, 2012

  Actual Average Record
Temperature  
Mean Temperature 52 °F -  
Max Temperature 57 °F 62 °F 87 °F (1996)
Min Temperature 46 °F 43 °F 39 °F (2006)
Degree Days  
Heating Degree Days 14    
Growing Degree Days 2 (Base 50)    
Moisture  
Dew Point 47 °F    
Average Humidity 94    
Maximum Humidity 100    
Minimum Humidity 72    
Precipitation  
Precipitation 0.00 in - - ()
Sea Level Pressure  
Sea Level Pressure 30.04 in    
Wind  
Wind Speed 2 mph (NW)    
Max Wind Speed 9 mph    
Max Gust Speed -    
Visibility 6 miles    
Events      
Averages and records for this station are not official NWS values.
T = Trace of Precipitation, MM = Missing Value Source: NWS Daily Summary

Daily Weather History Graph

Daily Weather History Graph

Search for Another Location

Airport or City:

Trip Planner

Search our weather history database for the weather conditions in past years. The results will help you decide how hot, cold, wet, or windy it might be!

Date:

Astronomy

Oct. 08, 2012 Rise Set
Actual Time 7:20 AM PDT 6:45 PM PDT
Civil Twilight 6:53 AM PDT 7:13 PM PDT
Nautical Twilight 6:21 AM PDT 7:45 PM PDT
Astronomical Twilight 5:49 AM PDT 8:17 PM PDT
Moon 12:03 AM PDT (10/8) 2:42 PM PDT (10/8)
Length of Visible Light 12h 19m
Length of Day
11h 24m
Last Quarter, 45% of the Moon is Illuminated
Oct 8
Last Quarter
Oct 15
New
Oct 21
First Quarter
Oct 29
Full
Nov 6
Last Quarter

Hourly Weather History & Observations

Time (PDT) Temp. Windchill Dew Point Humidity Pressure Visibility Wind Dir Wind Speed Gust Speed Precip Events Conditions
12:53 AM 48.0 °F - 46.9 °F 96% 30.03 in 7.0 mi SSE 3.5 mph - N/A   Overcast
1:48 AM 46.4 °F 45.2 °F 46.4 °F 100% 30.02 in 1.8 mi SSE 3.5 mph - N/A   Overcast
1:53 AM 46.9 °F - 46.9 °F 100% 30.04 in 1.5 mi Calm Calm - N/A   Overcast
2:19 AM 46.4 °F - 46.4 °F 100% 30.02 in 3.0 mi Calm Calm - N/A   Overcast
2:53 AM 48.0 °F - 46.9 °F 96% 30.04 in 5.0 mi ESE 3.5 mph - N/A   Overcast
3:35 AM 48.2 °F - 48.2 °F 100% 30.02 in 2.5 mi Calm Calm - N/A   Overcast
3:43 AM 48.2 °F - 46.4 °F 93% 30.02 in 3.0 mi Calm Calm - N/A   Overcast
3:53 AM 48.0 °F - 46.9 °F 96% 30.04 in 2.0 mi Calm Calm - N/A   Overcast
4:31 AM 46.4 °F - 46.4 °F 100% 30.02 in 1.2 mi Calm Calm - N/A   Overcast
4:45 AM 46.4 °F - 46.4 °F 100% 30.02 in 0.8 mi Calm Calm - N/A   Mist
4:53 AM 46.9 °F - 46.9 °F 100% 30.04 in 0.8 mi Calm Calm - N/A   Mist
5:02 AM 46.4 °F - 46.4 °F 100% 30.02 in 1.0 mi Calm Calm - N/A   Mist
5:30 AM 46.4 °F 45.2 °F 46.4 °F 100% 30.01 in 3.0 mi East 3.5 mph - N/A   Overcast
5:53 AM 46.9 °F - 46.9 °F 100% 30.03 in 5.0 mi Calm Calm - N/A   Overcast
6:35 AM 46.4 °F - 46.4 °F 100% 30.02 in 2.0 mi Calm Calm - N/A   Overcast
6:42 AM 46.4 °F - 46.4 °F 100% 30.02 in 1.8 mi Calm Calm - N/A   Overcast
6:53 AM 46.9 °F - 46.9 °F 100% 30.04 in 1.0 mi Calm Calm - N/A   Overcast
7:02 AM 46.4 °F - 46.4 °F 100% 30.02 in 0.8 mi Calm Calm - N/A   Overcast
7:09 AM 46.4 °F - 46.4 °F 100% 30.02 in 1.0 mi Calm Calm - N/A   Mist
7:17 AM 46.4 °F - 46.4 °F 100% 30.02 in 0.8 mi Calm Calm - N/A   Mist
7:26 AM 46.4 °F - 46.4 °F 100% 30.02 in 1.0 mi Calm Calm - N/A   Overcast
7:46 AM 46.4 °F - 46.4 °F 100% 30.02 in 2.0 mi Calm Calm - N/A   Overcast
7:53 AM 46.9 °F - 46.9 °F 100% 30.05 in 6.0 mi Calm Calm - N/A   Overcast
8:46 AM 48.2 °F - 48.2 °F 100% 30.03 in 3.0 mi Calm Calm - N/A   Overcast
8:53 AM 48.9 °F - 48.0 °F 97% 30.06 in 8.0 mi Calm Calm - N/A   Mostly Cloudy
9:04 AM 48.2 °F - 46.4 °F 93% 30.03 in 10.0 mi Calm Calm - N/A   Mostly Cloudy
9:53 AM 53.1 °F - 48.0 °F 83% 30.06 in 10.0 mi Calm Calm - N/A   Overcast
10:53 AM 54.0 °F - 48.9 °F 83% 30.06 in 10.0 mi NW 3.5 mph - N/A   Partly Cloudy
11:53 AM 54.0 °F - 48.9 °F 83% 30.07 in 10.0 mi West 5.8 mph - N/A   Clear
12:53 PM 57.0 °F - 48.0 °F 72% 30.06 in 10.0 mi WNW 3.5 mph - N/A   Clear
1:53 PM 57.0 °F - 48.0 °F 72% 30.06 in 10.0 mi NW 5.8 mph - N/A   Clear
2:53 PM 55.9 °F - 48.0 °F 75% 30.05 in 10.0 mi NNW 6.9 mph - N/A   Overcast
3:53 PM 54.0 °F - 48.0 °F 80% 30.06 in 10.0 mi NNW 9.2 mph - N/A   Overcast
4:53 PM 55.0 °F - 48.9 °F 80% 30.06 in 10.0 mi NW 5.8 mph - N/A   Mostly Cloudy
5:53 PM 53.1 °F - 50.0 °F 89% 30.06 in 10.0 mi WNW 4.6 mph - N/A   Mostly Cloudy
7:10 PM 51.8 °F - 50.0 °F 94% 30.05 in 10.0 mi WNW 4.6 mph - N/A   Mostly Cloudy
7:53 PM 51.1 °F - 50.0 °F 96% 30.07 in 10.0 mi Calm Calm - N/A   Overcast
8:53 PM 52.0 °F - 50.0 °F 93% 30.07 in 10.0 mi Calm Calm - N/A   Overcast
9:53 PM 51.1 °F - 48.9 °F 92% 30.08 in 10.0 mi Calm Calm - N/A   Overcast
10:53 PM 50.0 °F - 48.0 °F 93% 30.08 in 9.0 mi Calm Calm - N/A   Overcast
11:53 PM 50.0 °F - 48.0 °F 93% 30.08 in 10.0 mi ENE 3.5 mph - N/A   Mostly Cloudy